This is the latest recevied weather packets stored in our database for station/object VK5TRM-13. If no packets are shown the sender has not sent any weather packets the latest 10 day(s).
| Time | Temp. | Humidity | Pressure | Rain* | Wind** | Luminosity | Snow |
|---|---|---|---|---|---|---|---|
| 1778004905 | 7.78° C | 95% | 1023.1 hPa | 0.51 mm | - | - | - |
| 1778004004 | 8.33° C | 94% | 1023.2 hPa | 0.51 mm | - | - | - |
| 1778003104 | 8.33° C | 94% | 1023.2 hPa | 0.51 mm | - | - | - |
| 1778002204 | 8.89° C | 95% | 1023.5 hPa | 0.51 mm | - | - | - |
| 1778001305 | 8.89° C | 95% | 1023.5 hPa | 0.51 mm | - | - | - |
| 1778000405 | 8.89° C | 93% | 1023.5 hPa | 0.51 mm | - | - | - |
| 1777999505 | 8.89° C | 93% | 1023.5 hPa | 0.51 mm | - | - | - |
| 1777998605 | 11.11° C | 93% | 1023.7 hPa | 0.51 mm | - | - | - |
| 1777997704 | 11.11° C | 93% | 1023.7 hPa | 0.51 mm | - | - | - |
| 1777996805 | 12.78° C | 93% | 1023.8 hPa | 0.51 mm | - | - | - |
| 1777995904 | 12.78° C | 93% | 1023.8 hPa | 0.51 mm | - | - | - |
| 1777995005 | 12.78° C | 94% | 1024 hPa | 0.51 mm | - | - | - |
| 1777994105 | 12.78° C | 94% | 1024 hPa | 0.51 mm | - | - | - |
| 1777993205 | 12.78° C | 93% | 1024.1 hPa | 0.51 mm | - | - | - |
| 1777992305 | 12.78° C | 93% | 1024.1 hPa | 0.51 mm | - | - | - |
| 1777991405 | 12.78° C | 93% | 1024.2 hPa | 0.51 mm | - | - | - |
| 1777990504 | 12.78° C | 93% | 1024.2 hPa | 0.51 mm | - | - | - |
| 1777989605 | 13.33° C | 93% | 1024.4 hPa | 0.51 mm | - | - | - |
| 1777988705 | 13.33° C | 93% | 1024.4 hPa | 0.51 mm | - | - | - |
| 1777987805 | 12.78° C | 93% | 1024.6 hPa | 0.51 mm | - | - | - |
| 1777986904 | 12.78° C | 93% | 1024.6 hPa | 0.51 mm | - | - | - |
| 1777986004 | 12.78° C | 93% | 1024.6 hPa | 0.51 mm | - | - | - |
| 1777985104 | 12.78° C | 93% | 1024.6 hPa | 0.51 mm | - | - | - |
| 1777984204 | 12.78° C | 92% | 1024.6 hPa | 0.51 mm | - | - | - |
| 1777983304 | 12.78° C | 92% | 1024.6 hPa | 0.51 mm | - | - | - |
* Rain since midnight (hover to see other rain measurements)
** Current wind speed in m/s (hover to see current wind gust speed)